COSMOS 252 DEB *, 5871

Orbit data source: Space-Track

COSMOS 252 DEB *, 5871 is space debris in LEO originally from a launch on Fri, 01 Nov 1968 UTC launched from the Tyuratam Missile And Space Complex (TTMTR). Debris objects in space refer to the collection of defunct objects orbiting the Earth. Examples of debris include non-operational satellites, rocket bodies, and fragments generated from explosions, collisions, or faulty payload assembly.

Loading next visibility...
Identifier
5871, 1968-097DK
Orbit
LEO
Country
Flag of CISCIS
Related business
Manufacturer
Unknown
Mission
Spacecraft
Bus & Motor
Unknown
Mass
Unknown
Launch date (UTC)
1968-11-01 (58 years ago)
Launch vehicle
Unknown
Launch site
Tyuratam Missile And Space Complex (TTMTR)
Object type
Payload
Rocket body
Debris
Shape & HBR
Unknown shape, 0.2 m
Radar Cross Section
Small (<0.1 m²)

Expand to show TLE details & history
Last TLE update: 12 hours ago

TLE from 12 hours ago
0 COSMOS 252 DEB *
1  5871U 68097DK  26138.53690828  .00000011  00000-0  49043-4 0  9998
2  5871  62.8229  65.6189 0884810 218.0718 135.4491 13.06443270709703
Epoch: 2026-05-18T12:53Z
TLE epoch observation values (Epoch: 2026-05-18T12:53:08.875Z)
Latitude
-0.00005°
Longitude
-3.89186°
Altitude
1,745.535 km
Speed
6.769 km/s
True Right ascension
04h 22m 28s
True Declination
0° 00' 00"
Sunlit
Object was in daylight at epoch
Visualization orbit readout
Latitude
Unknown
Longitude
Unknown
Altitude
Unknown
Speed
Unknown
Apparent Right ascension
Unknown
Apparent Declination
Unknown
Sunlit
N/A
Visualization observer readout
Local Sidereal Time
09:59:17
Azimuth
Unknown
Elevation
Unknown
Doppler factor
Unknown
Orbital elements
Apogee altitude
1,909.553 km
Perigee altitude
562.165 km
Semi-major axis
7,613.996 km
Eccentricity
0.08848
Inclination
62.8229°
RAAN
65.6189°
Arg. of periapsis
218.0718°
True anomaly
142.02682°
Mean anomaly
135.4491°
Eccentric anomaly
138.78911°
Mean motion
3.26681 °/min
Orbital period
110.2 mins
BSTAR
0.000049043
Loading maneuver chart data...
Computing Atmospheric mass density...

Documentation

Showing up to 5 results
|